[[{"header":{"parameterUnit":"m.s-1","parameterCategory":1,"la1":30.2991,"la2":30.254,"lo1":-89.0895,"lo2":-89.0444,"dy":0.0017,"dx":0.0017,"nx":28,"ny":28,"refTime":"2023-08-01T03:00:00:Z","depth":0,"parameterNumber":2,"parameterNumberName":"U-component_of_WINDS"},"data":[0,0,0,0,0,0,0,0,0,0,0,0,0,0,0,0,0,0,0,0,0,0,0,0,0,0,0,0,0,0,0,0,0,0,0,0,0,0,0,0,0,0,0,0,0,0,0,0,0,0,0,0,0,0,0,0,0,0,1.0077,1.0078,0,1.0194,1.0195,1.0196,1.0233,1.0233,1.0232,1.0232,1.0351,1.0355,1.0359,0,0,0,0,0,0,0,0,0,0,0,0,0,0.9885,0.9888,1.0077,1.0078,1.008,1.0193,1.0195,1.0197,1.0233,1.0233,1.0232,1.0231,1.035,1.0354,1.0359,0,0,0,0,0,0,0,0,0,0,0,0,0,0.9982,0.9889,1.0077,1.0112,1.0116,1.0193,1.0195,1.0197,1.0233,1.0233,1.0232,1.0231,1.0349,1.0354,1.0359,1.041,0,0,1.0376,1.0379,0,0,0,0,0,0,0,0,0.9976,0.9989,1.0105,1.0109,1.0114,1.0198,1.0171,1.0268,1.0234,1.0189,1.0232,1.0231,1.0301,1.031,1.0334,1.0416,1.0421,1.0377,1.038,1.0383,1.0384,0,0,0,0,0,0,0,0.9969,0.9984,1.0123,1.0107,1.0112,1.0121,1.0134,1.019,1.0248,1.0193,1.0196,1.0209,1.0303,1.0329,1.0337,1.0423,1.0377,1.0382,1.0385,1.0387,1.0551,1.0552,0,0,0,0,0,0,0.9957,0.9978,1.0119,1.0127,1.0042,1.0126,1.014,1.0172,1.0248,1.0258,1.021,1.021,1.032,1.0331,1.0342,1.0405,1.0383,1.0388,1.0391,1.055,1.0551,1.0552,0,0,0,0,0,0,0.9952,0.9969,1.0115,1.0053,1.0072,1.013,1.0165,1.0175,1.02,1.026,1.0271,1.0225,1.0319,1.0334,1.0393,1.041,1.039,1.0395,1.0549,1.055,1.0552,1.0534,0,0,0,0,0,0,0.9947,0.9967,0.9987,1.0053,1.0075,1.0164,1.0167,1.0178,1.021,1.0212,1.0277,1.0287,1.032,1.0384,1.0398,1.0417,1.04,1.0547,1.055,1.0551,1.0533,1.0534,1.0536,0,0,0,0,0,0.994,0.9978,0.9988,1.0005,1.0102,1.0165,1.0177,1.0214,1.0211,1.0231,1.027,1.0285,1.0406,1.039,1.0406,1.0427,1.0547,1.0549,1.0551,1.0532,1.0534,1.0536,0,0,0,0,0,0,0.9912,0.9987,0.9999,1.006,1.0105,1.0171,1.0198,1.0215,1.0262,1.0262,1.0306,1.032,1.0376,1.0407,1.0388,1.048,1.0477,1.0482,1.0457,1.0459,1.046,1.0452,1.0404,0,0,0,0,0,0.9913,0.9958,1.0021,1.0068,1.009,1.014,1.0169,1.0193,1.0242,1.0262,1.0305,1.0352,1.0401,1.0432,1.048,1.0538,1.0552,1.056,1.0561,1.0562,1.0566,1.0599,1.0603,1.056,1.056,1.056,0,0,0.9915,0.9962,0.9988,1.0064,1.0102,1.0148,1.0156,1.0204,1.0238,1.0269,1.0327,1.036,1.0416,1.0474,1.0502,1.0503,1.0582,1.0565,1.0565,1.0569,1.0602,1.0606,1.0609,1.0561,1.0561,1.0561,0,0,0.9943,0.9983,1.0026,1.0064,1.0122,1.0155,1.0165,1.0228,1.0251,1.031,1.0334,1.0375,1.0458,1.0496,1.0527,1.0568,1.0584,1.0582,1.0589,1.0621,1.0624,1.0627,1.0642,1.0646,1.0587,1.0587,1.0587,0,0.9939,1.0008,1.0046,1.0093,1.0125,1.0155,1.0199,1.0234,1.0305,1.0327,1.0326,1.043,1.047,1.0537,1.0547,1.0571,1.0584,1.0575,1.062,1.0624,1.0628,1.0642,1.0647,1.0586,1.0586,1.0586,1.0586,0,1.0,1.0048,1.0076,1.0143,1.0178,1.0223,1.0268,1.03,1.032,1.0353,1.0412,1.0461,1.0519,1.0537,1.0557,1.0607,1.0605,1.0612,1.061,1.0631,1.0645,1.065,1.0585,1.0585,1.0585,1.0586,0,0,1.0014,1.0101,1.011,1.0141,1.0207,1.0244,1.029,1.0347,1.0373,1.0421,1.046,1.0529,1.0536,1.057,1.0595,1.0623,1.0652,1.0626,1.0628,1.0629,1.0709,1.0704,1.071,1.0663,1.0664,1.0665,1.0705,0,1.0049,1.0133,1.0168,1.0236,1.028,1.0309,1.0349,1.0393,1.0425,1.0467,1.0502,1.055,1.0555,1.0576,1.0604,1.0642,1.0669,1.064,1.07,1.0702,1.0685,1.0717,1.0712,1.0747,1.071,1.0711,1.0712,0,1.0103,1.015,1.0221,1.0281,1.0301,1.0337,1.0391,1.0431,1.0482,1.0503,1.0541,1.0565,1.0614,1.0609,1.0677,1.0657,1.0684,1.0706,1.0708,1.0715,1.0708,1.0725,1.0759,1.0764,1.0721,1.072,1.072,0,1.0105,1.0187,1.024,1.0265,1.0337,1.0361,1.0391,1.0442,1.0473,1.0521,1.0542,1.0594,1.0623,1.0663,1.0701,1.0693,1.0766,1.0763,1.0784,1.0783,1.0798,1.0797,1.0837,1.0816,1.0815,1.0815,1.0815,0,1.0141,1.0184,1.0242,1.0275,1.0323,1.0363,1.041,1.0443,1.0487,1.0526,1.0555,1.0591,1.0638,1.0681,1.071,1.0762,1.0775,1.0794,1.0801,1.0791,1.0789,1.0809,1.0808,1.0817,1.0817,1.0816,1.0816,0,1.0152,1.0193,1.0253,1.0315,1.0332,1.0364,1.0418,1.0451,1.0483,1.0533,1.0547,1.0598,1.065,1.0691,1.0758,1.0778,1.0833,1.0841,1.0815,1.0819,1.0838,1.0835,1.0892,1.0901,1.0874,1.0874,1.0874,0,1.0172,1.0206,1.0271,1.03,1.033,1.0375,1.0408,1.0448,1.048,1.0541,1.0566,1.0619,1.0664,1.0745,1.0788,1.084,1.085,1.0866,1.0858,1.0847,1.085,1.0847,1.0851,1.0867,1.0867,1.0867,1.0867,0,1.0204,1.0222,1.0268,1.032,1.0357,1.0401,1.0444,1.0466,1.0514,1.0549,1.0602,1.0637,1.0705,1.0758,1.0814,1.0846,1.0864,1.0869,1.0877,1.0867,1.0851,1.086,1.0817,1.0868,1.0868,1.0868,1.0868,1.0868,1.022,1.0251,1.0302,1.0351,1.0388,1.0428,1.0462,1.0499,1.0543,1.0602,1.0623,1.0677,1.0727,1.0804,1.0836,1.0879,1.0881,1.0892,1.0894,1.0896,1.0895,1.0844,1.0889,1.0889,1.0889,1.0889,1.089,0,1.0253,1.0287,1.0332,1.0392,1.0431,1.0445,1.0494,1.0525,1.0572,1.0617,1.066,1.0721,1.0772,1.0819,1.0872,1.0898,1.0907,1.091,1.0909,1.0916,1.0891,1.0879,1.0901,1.0901,1.0901,1.0901,1.0901,1.0901,1.0275,1.0327,1.0351,1.0422,1.0456,1.0509,1.0536,1.0573,1.0609,1.0675,1.0717,1.0748,1.0793,1.085,1.0897,1.091,1.0928,1.0929,1.0943,1.0919,1.0917,1.0916,1.0905,1.0932,1.0932,1.0965,1.0965,1.0965]},{"header":{"parameterUnit":"m.s-1","parameterCategory":1,"la1":30.2991,"la2":30.254,"lo1":-89.0895,"lo2":-89.0444,"dy":0.0017,"dx":0.0017,"nx":28,"ny":28,"refTime":"2023-08-01T03:00:00:Z","depth":0,"parameterNumber":3,"parameterNumberName":"V-component_of_WINDS"},"data":[0,0,0,0,0,0,0,0,0,0,0,0,0,0,0,0,0,0,0,0,0,0,0,0,0,0,0,0,0,0,0,0,0,0,0,0,0,0,0,0,0,0,0,0,0,0,0,0,0,0,0,0,0,0,0,0,0,0,0.3968,0.3966,0,0.3846,0.3844,0.3843,0.3754,0.3753,0.3752,0.3751,0.3621,0.3618,0.3615,0,0,0,0,0,0,0,0,0,0,0,0,0,0.4119,0.4116,0.3968,0.3966,0.3965,0.3846,0.3844,0.3842,0.3754,0.3753,0.3752,0.3751,0.3622,0.3618,0.3615,0,0,0,0,0,0,0,0,0,0,0,0,0,0.403,0.4116,0.3968,0.3906,0.39,0.3846,0.3844,0.3842,0.3754,0.3753,0.3752,0.3751,0.3623,0.3619,0.3614,0.3611,0,0,0.3602,0.36,0,0,0,0,0,0,0,0,0.4035,0.4025,0.3917,0.3911,0.3903,0.3814,0.3849,0.3764,0.3754,0.3809,0.3751,0.375,0.3685,0.3676,0.3655,0.3605,0.3599,0.3601,0.3599,0.3597,0.3596,0,0,0,0,0,0,0,0.4042,0.403,0.3919,0.3915,0.3907,0.3883,0.3869,0.3833,0.3755,0.3804,0.3797,0.3784,0.3681,0.366,0.3652,0.3597,0.3601,0.3598,0.3595,0.3593,0.3535,0.3536,0,0,0,0,0,0,0.4058,0.4035,0.3923,0.3916,0.3968,0.3881,0.3866,0.3843,0.3755,0.3741,0.3786,0.3781,0.3667,0.3657,0.3647,0.3636,0.3597,0.3593,0.3591,0.3534,0.3536,0.3537,0,0,0,0,0,0,0.4062,0.4049,0.3928,0.3974,0.3956,0.388,0.3855,0.3842,0.382,0.3741,0.3726,0.3778,0.3666,0.3652,0.362,0.363,0.3591,0.3587,0.3533,0.3535,0.3536,0.3615,0,0,0,0,0,0,0.4067,0.4051,0.405,0.3974,0.3954,0.3906,0.3856,0.384,0.3813,0.3806,0.373,0.3716,0.3664,0.3627,0.3616,0.3623,0.3584,0.3532,0.3534,0.3536,0.3611,0.3619,0.3625,0,0,0,0,0,0.4072,0.4076,0.4051,0.4038,0.3952,0.3907,0.3895,0.3837,0.3815,0.3812,0.3761,0.3719,0.3631,0.3625,0.3612,0.3618,0.3531,0.3533,0.3536,0.3608,0.3617,0.3625,0,0,0,0,0,0,0.4154,0.4065,0.4036,0.4016,0.397,0.3892,0.3887,0.3849,0.3806,0.3801,0.3728,0.3712,0.3687,0.3649,0.3644,0.3609,0.3575,0.3575,0.3635,0.3643,0.365,0.366,0.3581,0,0,0,0,0,0.417,0.4143,0.4066,0.4055,0.4034,0.3965,0.3943,0.3902,0.385,0.383,0.3776,0.3727,0.3687,0.3663,0.3623,0.3605,0.3586,0.3602,0.361,0.3616,0.3616,0.3603,0.3609,0.3544,0.3544,0.3544,0,0,0.4202,0.415,0.4137,0.4071,0.403,0.4001,0.3949,0.3921,0.3898,0.3825,0.3792,0.3751,0.369,0.3665,0.3651,0.3632,0.363,0.3619,0.3624,0.3621,0.3605,0.3612,0.3617,0.3545,0.3545,0.3545,0,0,0.4246,0.4205,0.4192,0.4152,0.4092,0.4046,0.4043,0.397,0.3941,0.3907,0.3851,0.3821,0.3756,0.3715,0.3685,0.3713,0.3671,0.3701,0.3739,0.3726,0.3731,0.3735,0.3744,0.3748,0.3702,0.3702,0.3702,0,0.4294,0.425,0.4189,0.4164,0.4136,0.407,0.4054,0.4018,0.3947,0.3928,0.3908,0.3824,0.3779,0.3742,0.3749,0.3728,0.372,0.371,0.3736,0.3739,0.3742,0.375,0.3753,0.3706,0.3706,0.3705,0.3705,0,0.431,0.4281,0.4277,0.4212,0.4182,0.4163,0.4097,0.4074,0.4035,0.3991,0.3956,0.3899,0.3845,0.3834,0.3795,0.3791,0.3781,0.375,0.3715,0.3753,0.3759,0.3762,0.3712,0.371,0.3709,0.3708,0,0,0.4403,0.4304,0.4304,0.4273,0.4201,0.4176,0.4152,0.4101,0.4083,0.4036,0.4012,0.3958,0.3929,0.3895,0.3851,0.384,0.3864,0.3809,0.3806,0.3821,0.3855,0.3879,0.3884,0.3836,0.3836,0.3837,0.386,0,0.4435,0.4391,0.4335,0.4309,0.428,0.4216,0.4195,0.4147,0.4105,0.4072,0.4024,0.3987,0.3951,0.393,0.3916,0.3864,0.387,0.3862,0.3812,0.3811,0.3829,0.3887,0.3912,0.3937,0.3862,0.3862,0.3862,0,0.4467,0.4425,0.4397,0.4327,0.4312,0.4295,0.4243,0.4214,0.4157,0.4127,0.409,0.4042,0.4011,0.3981,0.3936,0.3932,0.3908,0.3879,0.3879,0.3871,0.3839,0.388,0.3943,0.3947,0.3865,0.3865,0.3865,0,0.4537,0.4473,0.4447,0.4423,0.4341,0.4329,0.4294,0.4237,0.421,0.4164,0.4145,0.4096,0.4069,0.4031,0.397,0.3954,0.3932,0.3896,0.3904,0.3906,0.3902,0.3903,0.3962,0.3888,0.3888,0.3888,0.3888,0,0.4579,0.4564,0.4477,0.4462,0.4442,0.4377,0.4359,0.4317,0.4267,0.4241,0.4181,0.4157,0.408,0.4045,0.3998,0.3967,0.3956,0.3929,0.3916,0.3934,0.3937,0.3917,0.3913,0.3889,0.3889,0.3888,0.3888,0,0.4653,0.4595,0.4563,0.4488,0.4469,0.4458,0.4392,0.4373,0.4327,0.4294,0.4282,0.4209,0.4166,0.4103,0.404,0.4007,0.3984,0.3964,0.4004,0.3996,0.4008,0.4007,0.4055,0.4057,0.3983,0.3984,0.3985,0,0.4684,0.4671,0.4595,0.4574,0.4541,0.4508,0.448,0.4415,0.4388,0.4322,0.4311,0.4264,0.4223,0.4156,0.4096,0.4047,0.4025,0.4045,0.4017,0.4035,0.4024,0.4026,0.4024,0.4052,0.4053,0.4054,0.4055,0,0.4744,0.4716,0.4679,0.4632,0.4601,0.4561,0.4517,0.4502,0.4427,0.4399,0.4355,0.4324,0.426,0.4213,0.4156,0.4117,0.4073,0.4064,0.4063,0.4081,0.4104,0.4091,0.4022,0.4063,0.4062,0.4062,0.4061,0.4061,0.4797,0.4782,0.4726,0.4687,0.4647,0.4608,0.4586,0.4538,0.4501,0.4445,0.4408,0.4366,0.4308,0.4227,0.4191,0.4155,0.4137,0.4136,0.4135,0.4136,0.4142,0.4111,0.4145,0.4144,0.4144,0.4144,0.4143,0,0.4853,0.4814,0.4779,0.472,0.4689,0.4652,0.4601,0.4577,0.4541,0.4492,0.4453,0.4402,0.4356,0.4292,0.4241,0.4225,0.4203,0.4213,0.4214,0.4205,0.4162,0.4167,0.4232,0.4232,0.4232,0.4232,0.4232,0.4232,0.4879,0.4852,0.4817,0.4769,0.4729,0.4689,0.4663,0.4625,0.4586,0.4532,0.4494,0.4454,0.4398,0.4342,0.4298,0.428,0.4263,0.428,0.4256,0.4216,0.4208,0.4201,0.4206,0.4277,0.4277,0.4302,0.4302,0.4302]}]]